When you browse on this site, cookies collect data to enhance your experience and personalize the content and advertising you see.
Visit our Privacy Policy to learn more. By continuing to use the site, you agree to this use of cookies and data.
  • en Suisse
  • Liste des pays
  • À 7 jours
  • Température de l'eau
  • Carte météo
  • Widgets météo
  • user-avatar
    Se connecter

    Météo par heure à Miszkolc

    Ce jour, 8 Avril, Mercredi

    Heure Température Précipitation Vent Pression Humidité
    00:00 +9°C° 0 mm 1 m/s 760 mmHg 47%
    01:00 +9°C° 0 mm 1 m/s 759 mmHg 46%
    02:00 +9°C° 0 mm 1 m/s 759 mmHg 48%
    03:00 +8°C° 0 mm 1 m/s 759 mmHg 50%
    04:00 +8°C° 0 mm 1 m/s 759 mmHg 52%
    05:00 +9°C° 0 mm 1 m/s 759 mmHg 52%
    06:00 +10°C° 0 mm 1 m/s 759 mmHg 53%
    07:00 +11°C° 0 mm 1 m/s 760 mmHg 51%
    08:00 +13°C° 0 mm 1 m/s 759 mmHg 47%
    09:00 +15°C° 0 mm 1 m/s 759 mmHg 43%
    10:00 +18°C° 0 mm 1 m/s 759 mmHg 39%
    11:00 +19°C° 0 mm 1 m/s 758 mmHg 36%
    12:00 +20°C° 0 mm 1 m/s 758 mmHg 34%
    13:00 +21°C° 0 mm 1 m/s 757 mmHg 31%
    14:00 +21°C° 0 mm 1 m/s 757 mmHg 31%
    15:00 +21°C° 0 mm 1 m/s 756 mmHg 31%
    16:00 +21°C° 0 mm 1 m/s 756 mmHg 31%
    17:00 +19°C° 0 mm 1 m/s 756 mmHg 36%
    18:00 +16°C° 0 mm 1 m/s 755 mmHg 41%
    19:00 +14°C° 0 mm 1 m/s 755 mmHg 46%
    20:00 +13°C° 0 mm 1 m/s 755 mmHg 48%
    21:00 +12°C° 0 mm 1 m/s 755 mmHg 49%
    22:00 +12°C° 0 mm 1 m/s 755 mmHg 50%
    23:00 +11°C° 0 mm 1 m/s 755 mmHg 52%

    Demain, 9 Avril, Jeudi

    Heure Température Précipitation Vent Pression Humidité
    00:00 +11°C° 0 mm 1 m/s 755 mmHg 53%
    01:00 +10°C° 0 mm 1 m/s 754 mmHg 54%
    02:00 +10°C° 0 mm 1 m/s 754 mmHg 55%
    03:00 +8°C° 0 mm 0 m/s 754 mmHg 57%
    04:00 +8°C° 0 mm 0 m/s 754 mmHg 58%
    05:00 +9°C° 0 mm 0 m/s 754 mmHg 56%
    06:00 +10°C° 0 mm 0 m/s 754 mmHg 55%
    07:00 +11°C° 0 mm 0 m/s 754 mmHg 53%
    08:00 +14°C° 0 mm 1 m/s 754 mmHg 47%
    09:00 +16°C° 0 mm 1 m/s 753 mmHg 42%
    10:00 +18°C° 0 mm 2 m/s 753 mmHg 36%
    11:00 +19°C° 0 mm 2 m/s 753 mmHg 34%
    12:00 +20°C° 0 mm 3 m/s 753 mmHg 32%
    13:00 +21°C° 0 mm 3 m/s 752 mmHg 29%
    14:00 +21°C° 0 mm 4 m/s 752 mmHg 31%
    15:00 +20°C° 0 mm 4 m/s 752 mmHg 33%
    16:00 +20°C° 0 mm 4 m/s 751 mmHg 36%
    17:00 +18°C° 0 mm 3 m/s 751 mmHg 41%
    18:00 +16°C° 0 mm 3 m/s 751 mmHg 46%
    19:00 +14°C° 0 mm 2 m/s 751 mmHg 52%
    20:00 +13°C° 0 mm 2 m/s 751 mmHg 55%
    21:00 +12°C° 0 mm 1 m/s 751 mmHg 59%
    22:00 +12°C° 0 mm 1 m/s 751 mmHg 63%
    23:00 +11°C° 0 mm 1 m/s 751 mmHg 63%

    Après-demain, 10 Avril, Vendredi

    Heure Température Précipitation Vent Pression Humidité
    00:00 +11°C° 0 mm 1 m/s 751 mmHg 64%
    01:00 +10°C° 0 mm 2 m/s 751 mmHg 65%
    02:00 +9°C° 0 mm 2 m/s 751 mmHg 67%
    03:00 +9°C° 0 mm 2 m/s 752 mmHg 70%
    04:00 +10°C° 0 mm 1 m/s 752 mmHg 72%
    05:00 +10°C° 0 mm 2 m/s 752 mmHg 70%
    06:00 +12°C° 0 mm 2 m/s 753 mmHg 69%
    07:00 +13°C° 0 mm 2 m/s 753 mmHg 67%
    08:00 +14°C° 0 mm 2 m/s 753 mmHg 62%
    09:00 +14°C° 0 mm 3 m/s 753 mmHg 57%
    10:00 +16°C° 0 mm 3 m/s 753 mmHg 51%
    11:00 +16°C° 0 mm 3 m/s 753 mmHg 50%
    12:00 +16°C° 0 mm 3 m/s 753 mmHg 48%
    13:00 +16°C° 0 mm 3 m/s 753 mmHg 46%
    14:00 +16°C° 0 mm 3 m/s 753 mmHg 44%
    15:00 +16°C° 0 mm 3 m/s 753 mmHg 43%
    16:00 +16°C° 0 mm 3 m/s 752 mmHg 41%
    17:00 +13°C° 0 mm 3 m/s 752 mmHg 45%
    18:00 +12°C° 0 mm 3 m/s 753 mmHg 48%
    19:00 +10°C° 0 mm 3 m/s 753 mmHg 52%
    20:00 +10°C° 0 mm 2 m/s 753 mmHg 52%
    21:00 +9°C° 0 mm 2 m/s 753 mmHg 52%
    22:00 +9°C° 0 mm 2 m/s 754 mmHg 52%
    23:00 +8°C° 0 mm 2 m/s 754 mmHg 54%

    11 Avril, Samedi

    Heure Température Précipitation Vent Pression Humidité
    00:00 +8°C° 0 mm 2 m/s 753 mmHg 56%
    01:00 +8°C° 0 mm 1 m/s 753 mmHg 58%
    02:00 +8°C° 0 mm 1 m/s 754 mmHg 60%
    03:00 +6°C° 0 mm 2 m/s 754 mmHg 61%
    04:00 +6°C° 0 mm 2 m/s 754 mmHg 63%
    05:00 +7°C° 0 mm 2 m/s 754 mmHg 60%
    06:00 +8°C° 0 mm 2 m/s 754 mmHg 57%
    07:00 +9°C° 0 mm 2 m/s 754 mmHg 55%
    08:00 +12°C° 0 mm 2 m/s 754 mmHg 50%
    09:00 +14°C° 0 mm 2 m/s 754 mmHg 44%
    10:00 +15°C° 0 mm 2 m/s 754 mmHg 39%
    11:00 +16°C° 0 mm 2 m/s 754 mmHg 38%
    12:00 +17°C° 0 mm 2 m/s 754 mmHg 36%
    13:00 +17°C° 0 mm 2 m/s 754 mmHg 35%
    14:00 +17°C° 0 mm 2 m/s 753 mmHg 35%
    15:00 +17°C° 0 mm 2 m/s 753 mmHg 36%
    16:00 +17°C° 0 mm 2 m/s 753 mmHg 37%
    17:00 +15°C° 0 mm 2 m/s 753 mmHg 43%
    18:00 +13°C° 0 mm 1 m/s 753 mmHg 48%
    19:00 +11°C° 0 mm 1 m/s 753 mmHg 54%
    20:00 +11°C° 0 mm 1 m/s 753 mmHg 56%
    21:00 +10°C° 0 mm 1 m/s 754 mmHg 58%
    22:00 +9°C° 0 mm 1 m/s 754 mmHg 60%
    23:00 +9°C° 0 mm 1 m/s 754 mmHg 61%

    12 Avril, Dimanche

    Heure Température Précipitation Vent Pression Humidité
    00:00 +8°C° 0 mm 1 m/s 754 mmHg 63%
    01:00 +8°C° 0 mm 1 m/s 754 mmHg 64%
    02:00 +7°C° 0 mm 1 m/s 754 mmHg 65%
    03:00 +7°C° 0 mm 1 m/s 754 mmHg 66%
    04:00 +7°C° 0 mm 1 m/s 753 mmHg 66%
    05:00 +8°C° 0 mm 1 m/s 753 mmHg 63%
    06:00 +9°C° 0 mm 1 m/s 753 mmHg 60%
    07:00 +10°C° 0 mm 1 m/s 753 mmHg 57%
    08:00 +12°C° 0 mm 1 m/s 753 mmHg 53%
    09:00 +14°C° 0 mm 1 m/s 753 mmHg 49%
    10:00 +16°C° 0 mm 2 m/s 752 mmHg 44%
    11:00 +16°C° 0 mm 2 m/s 752 mmHg 43%
    12:00 +17°C° 0 mm 3 m/s 752 mmHg 42%
    13:00 +18°C° 0 mm 3 m/s 751 mmHg 41%
    14:00 +18°C° 0 mm 4 m/s 751 mmHg 42%
    15:00 +18°C° 0 mm 4 m/s 750 mmHg 43%
    16:00 +18°C° 0 mm 4 m/s 750 mmHg 45%
    17:00 +16°C° 0 mm 3 m/s 750 mmHg 51%
    18:00 +13°C° 0 mm 3 m/s 749 mmHg 58%
    19:00 +12°C° 0 mm 2 m/s 749 mmHg 64%
    20:00 +12°C° 0 mm 2 m/s 749 mmHg 65%
    21:00 +10°C° 0 mm 2 m/s 749 mmHg 66%
    22:00 +9°C° 0 mm 2 m/s 749 mmHg 66%
    23:00 +9°C° 0 mm 2 m/s 748 mmHg 68%

    13 Avril, Lundi

    Heure Température Précipitation Vent Pression Humidité
    00:00 +9°C° 0 mm 2 m/s 748 mmHg 70%
    01:00 +8°C° 0 mm 2 m/s 748 mmHg 72%
    02:00 +8°C° 0.4 mm 2 m/s 747 mmHg 76%
    03:00 +9°C° 0.4 mm 2 m/s 747 mmHg 80%
    04:00 +9°C° 0.4 mm 2 m/s 747 mmHg 84%
    05:00 +9°C° 0.3 mm 2 m/s 746 mmHg 83%
    06:00 +10°C° 0.3 mm 2 m/s 746 mmHg 83%
    07:00 +10°C° 0.3 mm 2 m/s 746 mmHg 82%
    08:00 +12°C° 0 mm 2 m/s 746 mmHg 76%
    09:00 +14°C° 0 mm 2 m/s 745 mmHg 70%
    10:00 +14°C° 0 mm 3 m/s 745 mmHg 65%
    11:00 +16°C° 0 mm 3 m/s 744 mmHg 62%
    12:00 +17°C° 0 mm 3 m/s 744 mmHg 59%
    13:00 +18°C° 0 mm 4 m/s 743 mmHg 55%
    14:00 +18°C° 0 mm 4 m/s 743 mmHg 55%
    15:00 +19°C° 0 mm 5 m/s 742 mmHg 55%
    16:00 +19°C° 0 mm 5 m/s 742 mmHg 55%
    17:00 +16°C° 0.2 mm 5 m/s 742 mmHg 60%
    18:00 +15°C° 0.2 mm 4 m/s 742 mmHg 66%
    19:00 +13°C° 0.2 mm 4 m/s 742 mmHg 72%
    20:00 +12°C° 0 mm 4 m/s 743 mmHg 72%
    21:00 +9°C° 0 mm 5 m/s 744 mmHg 72%
    22:00 +8°C° 0 mm 5 m/s 744 mmHg 72%
    23:00 +5°C° 0 mm 6 m/s 746 mmHg 67%
    Voir plus